Weather History for LHBP - September, 2012

Change the Weather History Date:

Saturday, September 22, 2012

  Actual Average Record
Temperature  
Mean Temperature 55 °F -  
Max Temperature 68 °F 61 °F 86 °F (2003)
Min Temperature 42 °F 42 °F 35 °F (2007)
Degree Days  
Heating Degree Days 10    
Growing Degree Days 5 (Base 50)    
Moisture  
Dew Point 42 °F    
Average Humidity 62    
Maximum Humidity 81    
Minimum Humidity 40    
Precipitation  
Precipitation 0.00 in - - ()
Sea Level Pressure  
Sea Level Pressure 30.03 in    
Wind  
Wind Speed 5 mph ()    
Max Wind Speed 13 mph    
Max Gust Speed -    
Visibility 6.2 miles    
Events      
Averages and records for this station are not official NWS values.
T = Trace of Precipitation, MM = Missing Value Source: Averaged Metar Reports

Daily Weather History Graph

Daily Weather History Graph

Search for Another Location

Airport or City:

Trip Planner

Search our weather history database for the weather conditions in past years. The results will help you decide how hot, cold, wet, or windy it might be!

Date:

Astronomy

Sep. 22, 2012 Rise Set
Actual Time 6:30 AM CEST 6:40 PM CEST
Civil Twilight 5:59 AM CEST 7:10 PM CEST
Nautical Twilight 5:23 AM CEST 7:46 PM CEST
Astronomical Twilight 4:46 AM CEST 8:23 PM CEST
Moon 1:56 PM CEST (9/22) 11:00 PM CEST (9/22)
Length of Visible Light 13h 11m
Length of Day
12h 10m
Waxing Crescent, 45% of the Moon is Illuminated
Sep 22
Waxing Crescent
Sep 22
First Quarter
Sep 30
Full
Oct 8
Last Quarter
Oct 15
New

Hourly Weather History & Observations

Time (CEST) Temp. Windchill Dew Point Humidity Pressure Visibility Wind Dir Wind Speed Gust Speed Precip Events Conditions
12:00 AM 44.6 °F 42.2 °F 37.4 °F 76% 30.12 in - East 4.6 mph - N/A   Clear
12:30 AM 46.4 °F 43.5 °F 35.6 °F 66% 30.12 in - ENE 5.8 mph - N/A   Clear
1:00 AM 46.4 °F 44.3 °F 37.4 °F 71% 30.12 in - East 4.6 mph - N/A   Clear
1:30 AM 46.4 °F 45.2 °F 37.4 °F 71% 30.12 in - Variable 3.5 mph - N/A   Clear
2:00 AM 44.6 °F 43.1 °F 37.4 °F 76% 30.12 in - Variable 3.5 mph - N/A   Clear
2:30 AM 44.6 °F 41.4 °F 37.4 °F 76% 30.09 in - ENE 5.8 mph - N/A   Clear
3:00 AM 46.4 °F 43.5 °F 37.4 °F 71% 30.09 in - East 5.8 mph - N/A   Clear
3:30 AM 44.6 °F 41.4 °F 37.4 °F 76% 30.09 in - East 5.8 mph - N/A   Clear
4:00 AM 46.4 °F 42.9 °F 37.4 °F 71% 30.06 in - East 6.9 mph - N/A   Clear
4:30 AM 46.4 °F 44.3 °F 37.4 °F 71% 30.06 in - ENE 4.6 mph - N/A   Clear
5:00 AM 44.6 °F 40.7 °F 37.4 °F 76% 30.04 in - East 6.9 mph - N/A   Clear
5:30 AM 44.6 °F 41.4 °F 37.4 °F 76% 30.04 in - East 5.8 mph - N/A   Clear
6:00 AM 42.8 °F 39.3 °F 37.4 °F 81% 30.04 in - ESE 5.8 mph - N/A   Clear
6:30 AM 44.6 °F 42.2 °F 37.4 °F 76% 30.04 in - ESE 4.6 mph - N/A   Clear
7:00 AM 42.8 °F - 37.4 °F 81% 30.04 in - Variable 2.3 mph - N/A   Clear
7:30 AM 44.6 °F 40.7 °F 39.2 °F 81% 30.04 in - ESE 6.9 mph - N/A   Clear
8:00 AM 46.4 °F 43.5 °F 39.2 °F 76% 30.04 in - SE 5.8 mph - N/A   Clear
8:30 AM 48.2 °F - 39.2 °F 71% 30.04 in - SE 8.1 mph - N/A   Clear
9:00 AM 50.0 °F - 39.2 °F 66% 30.04 in - SSE 6.9 mph - N/A   Clear
9:30 AM 53.6 °F - 39.2 °F 58% 30.04 in - SSE 6.9 mph - N/A   Clear
10:00 AM 55.4 °F - 41.0 °F 58% 30.04 in - South 6.9 mph - N/A   Clear
10:30 AM 57.2 °F - 39.2 °F 51% 30.04 in - South 9.2 mph - N/A   Clear
11:00 AM 59.0 °F - 41.0 °F 51% 30.04 in - South 10.4 mph - N/A   Clear
11:30 AM 60.8 °F - 41.0 °F 48% 30.01 in - South 11.5 mph - N/A   Clear
12:00 PM 62.6 °F - 39.2 °F 42% 30.01 in - SSE 12.7 mph - N/A   Clear
12:30 PM 62.6 °F - 41.0 °F 45% 30.01 in - South 11.5 mph - N/A   Clear
1:00 PM 64.4 °F - 41.0 °F 42% 29.98 in - SSE 11.5 mph - N/A   Clear
1:30 PM 64.4 °F - 41.0 °F 42% 29.98 in - South 10.4 mph - N/A   Clear
2:00 PM 66.2 °F - 42.8 °F 43% 29.98 in - SSE 10.4 mph - N/A   Clear
2:30 PM 68.0 °F - 42.8 °F 40% 29.98 in - SSE 11.5 mph - N/A   Clear
3:00 PM 66.2 °F - 42.8 °F 43% 29.98 in - South 10.4 mph - N/A   Clear
3:30 PM 68.0 °F - 44.6 °F 43% 29.98 in - South 9.2 mph - N/A   Clear
4:00 PM 68.0 °F - 44.6 °F 43% 29.98 in - South 6.9 mph - N/A   Clear
4:30 PM 68.0 °F - 44.6 °F 43% 29.98 in - South 6.9 mph - N/A   Clear
5:00 PM 68.0 °F - 44.6 °F 43% 29.98 in 6.2 mi South 5.8 mph - N/A   Mostly Cloudy
5:30 PM 68.0 °F - 44.6 °F 43% 29.98 in 6.2 mi South 6.9 mph - N/A   Scattered Clouds
6:00 PM 68.0 °F - 44.6 °F 43% 29.98 in 6.2 mi South 5.8 mph - N/A   Scattered Clouds
6:30 PM 66.2 °F - 46.4 °F 49% 29.98 in 6.2 mi SSE 4.6 mph - N/A   Scattered Clouds
7:00 PM 60.8 °F - 48.2 °F 63% 29.98 in - SE 4.6 mph - N/A   Clear
7:30 PM 60.8 °F - 48.2 °F 63% 29.98 in - Variable 3.5 mph - N/A   Clear
8:00 PM 60.8 °F - 48.2 °F 63% 29.98 in - Variable 2.3 mph - N/A   Clear
8:30 PM 59.0 °F - 50.0 °F 72% 30.01 in - Variable 1.2 mph - N/A   Clear
9:00 PM 59.0 °F - 48.2 °F 67% 30.01 in - Calm Calm - N/A   Clear
9:30 PM 57.2 °F - 50.0 °F 77% 30.01 in - Variable 2.3 mph - N/A   Clear
10:00 PM 57.2 °F - 50.0 °F 77% 30.01 in - Variable 2.3 mph - N/A   Clear
10:30 PM 57.2 °F - 50.0 °F 77% 30.04 in - Variable 2.3 mph - N/A   Clear
11:00 PM 57.2 °F - 50.0 °F 77% 30.04 in - Variable 3.5 mph - N/A   Clear
11:30 PM 57.2 °F - 50.0 °F 77% 30.04 in - Calm Calm - N/A   Clear